sat.trackr.live / text

‹ back to catalog

STARLINK-32426

NORAD 61681 · 2024-193W

PAYLOAD ACTIVE UNKNOWN

§ Identity

Operator
Country
US
Launch date
2024-10-26
Launch site
AFETR
Launch vehicle
Mass (kg)
RCS (m²)

Purposes: comms

External: N2YO · Heavens-Above · Gunter

§ Orbital elements

Epoch: 2026-09-21T08:54:24.431040Z

Period
93.85 min
Inclination
53.1596°
Eccentricity
0.0001114
Mean motion
15.34387598 rev/d
Perigee alt
462.0 km
Apogee alt
463.5 km
Semi-major
6,840.9 km
B*
7.9271e-6
RAAN
261.5645°
Arg perigee
116.1985°
Mean anomaly
243.9132°
Rev number
10,649

§ Raw data

STARLINK-324261 61681U 24193W   26264.37111610 -.00000108  00000+0  79271-5 0  99912 61681  53.1596 261.5645 0001114 116.1985 243.9132 15.34387598106497

JSON: /api/v1/satellites/61681 · /tle

For live sub-satellite position, see the globe view (requires WebGL).

§ Visibility from observer

Set your observer location to see the next 7 days of passes ≥ 10°. The values pass through the URL so the page stays shareable.

No JS? Fill the form by hand. The geolocation button needs JavaScript.